Volver al catálogo

YAOGAN 7

ActivoMilitarSSO
NORAD 36110·PAYLOAD·🇨🇳 China

Lanzado Dec 9, 2009 desde Jiuquan Satellite Launch Center

Loading…

Próximos Pases (próximas 24 horas)

TLE

ActualizadoSource: Space-Track

Época: Sep 14, 2026, 15:40 UTC

1 36110U 09069A   26257.65313116  .00000309  00000-0  49823-4 0  9995
2 36110  97.9918 142.9045 0025831 109.4288 250.9717 14.78078146902842

Sigue YAOGAN 7 en tiempo real con AllMySat

Download on the App Store